Location: Düngen
(52.0952°N, 10.0219°E)
Time: 15:44:41
(UTC+00:00)

IRS-1A Rocket - Pass Details

Date: 11 March 2026
Orbit: 852 x 931 km, 98.9° (Epoch: 14 April)

Event Time Altitude Azimuth Distance (km) Brightness Sun altitude
Exits shadow 19:10:56 30° 124° (SE) 1,514 5.0 -18.0°
Maximum altitude 19:13:25 50° 66° (ENE) 1,080 4.4 -18.4°
Drops below altitude 10° 19:18:44 10° 352° (N) 2,495 7.0 -19.2°
Sets 19:21:09 0° 348° (NNW) 3,434 7.8 -19.5°
